Home   Weather   Pond Inlet   Past weeks

Flag for Canada Past Weather in Pond Inlet, Nunavut, Canada — Yesterday and Last 2 Weeks

Now
37 °F

Clear.


Feels Like: 28 °F
Forecast: 33 / 38 °F
Wind: 17 mph from Southwest

Location: Pond Inlet

Current Time: Aug 30, 2016 at 10:37:20 PM

Latest Report: Aug 30, 2016 at 10:00 PM


Visibility: 9 mi

Pressure: 29.83 "Hg

Humidity: 75%

Dew Point: 30 °F

Location of Pond InletLocation

Past Weather in Pond Inlet — Graph

°F

Pond Inlet Temperature Yesterday

Maximum temperature yesterday: 52 °F (at 3:00 PM)
Minimum temperature yesterday: 43 °F (at 3:00 AM)
Average temperature yesterday: 47 °F

High & Low Weather Summary for the Past Weeks

 TemperatureHumidityPressure
High57 °F (Aug 21, 5:00 PM)100% (Aug 17, 5:47 PM)30.24 "Hg (Aug 17, 5:47 PM)
Low34 °F (Aug 19, 4:00 AM)26% (Aug 21, 4:00 PM)29.58 "Hg (Aug 17, 11:00 AM)
Average46 °F77%29.88 "Hg
* Reported Aug 15 9:00 PM — Aug 30 9:00 PM, Pond Inlet, Weather by CustomWeather, © 2016

Note: Actual official high and low records may vary slightly from our data, if they occured in-between our weather recording intervals... More about our weather records

Advertising

Pond Inlet Weather History for the Previous 24 Hours

Scroll right to see more
 ConditionsComfort  
Time TempWeatherWind HumidityBarometerVisibility
9:00 PM
Tue, Aug 30
37 °FClear.15 mph75%29.84 "Hg9 mi
8:00 PM41 °FSunny.12 mph76%29.84 "Hg9 mi
7:00 PM43 °FPartly sunny.13 mph81%29.85 "Hg30 mi
6:00 PM45 °FScattered clouds.15 mph76%29.85 "Hg30 mi
5:00 PM46 °FScattered clouds.15 mph66%29.85 "Hg30 mi
4:00 PM48 °FPartly sunny.16 mph66%29.85 "Hg30 mi
3:00 PM48 °FPartly sunny.13 mph62%29.86 "Hg40 mi
2:00 PM48 °FPartly sunny.13 mph66%29.87 "Hg40 mi
1:00 PM48 °FPartly sunny.13 mph62%29.87 "Hg40 mi
12:00 PM48 °FPassing clouds.14 mph62%29.89 "Hg40 mi
11:00 AM48 °FPassing clouds.13 mph62%29.90 "Hg40 mi
10:00 AM46 °FSunny.13 mph66%29.92 "Hg9 mi
9:00 AM46 °FSunny.12 mph66%29.93 "Hg9 mi
8:00 AM46 °FSunny.13 mph66%29.94 "Hg9 mi
7:00 AM43 °FSunny.14 mph76%29.95 "Hg9 mi
6:00 AM41 °FSunny.14 mph81%29.95 "Hg9 mi
5:00 AM41 °FSunny.15 mph81%29.96 "Hg9 mi
4:00 AM41 °FClear.16 mph81%29.97 "Hg9 mi
3:00 AM43 °FClear.17 mph76%29.97 "Hg9 mi
2:00 AM41 °FClear.17 mph81%29.97 "Hg9 mi
1:00 AM41 °FClear.15 mph87%29.99 "Hg9 mi
12:00 AM43 °FClear.18 mph87%29.99 "Hg9 mi
11:00 PM
Mon, Aug 29
45 °FClear.10 mph87%30.01 "Hg9 mi
10:00 PM43 °FClear.6 mph87%30.03 "Hg9 mi
Weather by CustomWeather, © 2016

See weather overviewHow to use our weather pages